STARLINK-4596, 53624

Orbit data source: Space-Track

STARLINK-4596, 53624 is a payload satellite owned by SpaceX/Seattle (US) in LEO that was launched on Sun, 28 Aug 2022 UTC via an FALCON 9 launch vehicle from the Air Force Eastern Test Range (AFETR). Payload-class satellites include a variety of spacecraft equipped with specific instruments for various scientific and technological missions. These include communications satellites like Starlink; space stations such as the ISS; scientific satellites like the Hubble; Earth observation satellites from companies like Planet Labs, Umbra, and HawkEye 360; GPS; miniature CubeSats for education and research; and military/defense satellites.

Loading next visibility...
Identifier
53624, 2022-104AN
Orbit
LEO
Last TLE update
19 hours ago
Origin
Manufacturer
SpaceX/Seattle
Mission
Operational Commercial Communications
Bus & Motor
STARLINK, Unknown motor
Mass
300 kg wet, ~290 kg dry
Launch date (UTC)
2022-08-28 (3 years ago)
Launch vehicle
FALCON 9
Launch site
Air Force Eastern Test Range (AFETR)
Object type
Payload
Rocket body
Debris
Shape & HBR
Box + 1 Pan, 8.86 m
Radar Cross Section
13.562 m², Large (>1 m²)

Expand to show TLE details & history

TLE from 19 hours ago
0 STARLINK-4596
1 53624U 22104AN  25181.61460646  .00000305  00000-0  37273-4 0  9993
2 53624  53.2177 285.4891 0001169  88.1737 271.9389 15.08838592157691
Epoch: 2025-06-30T14:45Z
TLE epoch observation values (Epoch: 2025-06-30T14:45:01.998Z)
Latitude
-0.00001°
Longitude
145.30889°
Altitude
540.618 km
Speed
7.593 km/s
True Right ascension
19h 01m 57s
True Declination
0° 00' 00"
Sunlit
Object was in full shadow at epoch
Visualization orbit readout
Latitude
38.46079°
Longitude
177.89652°
Altitude
542.4 km
Speed
7.596 km/s
Apparent Right ascension
18h 01m 39s
Apparent Declination
14° 09' 29"
Sunlit
Object is in daylight
Visualization observer readout
Local Sidereal Time
21:41:27
Azimuth
257.932° W
Elevation
35.735°
Doppler factor
1
Orbital elements
Apogee altitude
540.801 km
Perigee altitude
539.184 km
Semi-major axis
6,918.13 km
Eccentricity
0.00012
Inclination
53.2177°
RAAN
285.4891°
Arg. of periapsis
88.1737°
True anomaly
Unknown
Mean anomaly
271.9389°
Eccentric anomaly
Unknown
Mean motion
3.7719 °/min
Orbital period
95.44 mins
BSTAR
0.000037273
Loading maneuver chart data...
Loading SW <> Apogee altitude chart data...
Loading historical data...
Loading historical data...
Loading historical data...
Loading historical data...
Loading historical data...
Loading historical data...
Loading historical data...

STARLINK-4596 Visibility forecast

Observer location: undefined°, undefined°

Span
Click to sort rows by Start time (UTC) header in descending order
Start Az.
Max El. time (UTC)
Max El. Az.
Max El.
End time (UTC)
End Az.
5 mins2025-07-01 10:03:04.865Z257.098° W2025-07-01 10:04:04.865Z287.628° WNW39.61°2025-07-01 10:08:04.865Z42.949° NE
4 mins2025-07-01 11:43:04.865Z316.11° NNW2025-07-01 11:44:04.865Z333.306° NNW16.255°2025-07-01 11:47:04.865Z22.592° NE
5 mins2025-07-01 15:04:04.865Z348.918° N2025-07-01 15:06:04.865Z32.645° NE22.336°2025-07-01 15:09:04.865Z81.005° E
6 mins2025-07-01 16:43:04.865Z299.32° NW2025-07-01 16:45:04.865Z253.107° W41.311°2025-07-01 16:49:04.865Z142.655° SSE
4 mins2025-07-02 08:15:04.865Z163.864° S2025-07-02 08:17:04.865Z121.671° SE21.362°2025-07-02 08:19:04.865Z85.303° E
6 mins2025-07-02 09:53:04.865Z255.348° W2025-07-02 09:56:04.865Z336.086° NNW36.574°2025-07-02 09:59:04.865Z37.695° NE
|